Weather History for KHJO - September, 2013

Change the Weather History Date:

Wednesday, September 25, 2013

  Actual Average Record
Temperature  
Mean Temperature 65 °F 71 °F  
Max Temperature 75 °F 88 °F 98 °F (2009)
Min Temperature 54 °F 54 °F 44 °F (2005)
Degree Days  
Heating Degree Days 0    
Month to date heating degree days 0  
Since 1 July heating degree days 0  
Cooling Degree Days 0    
Month to date cooling degree days 302  
Year to date cooling degree days 2025  
Growing Degree Days 15 (Base 50)    
Moisture  
Dew Point 43 °F    
Average Humidity 46    
Maximum Humidity 67    
Minimum Humidity 25    
Precipitation  
Precipitation 0.00 in 0.01 in 0.15 in (1986)
Month to date precipitation 0.01 0.13  
Year to date precipitation 1.61 6.93  
Since 1 July precipitation 0.01 0.17  
Snow  
Snow 0.00 in - - ()
Month to date snowfall 0.0  
Since 1 July snowfall 0.0  
Since 1 September snowfall 0.0  
Snow Depth 0.00 in    
Sea Level Pressure  
Sea Level Pressure 29.84 in    
Wind  
Wind Speed 12 mph (NNW)    
Max Wind Speed 23 mph    
Max Gust Speed 29 mph    
Visibility 10 miles    
Events      
T = Trace of Precipitation, MM = Missing Value Source: NWS Daily Summary

Daily Weather History Graph

Daily Weather History Graph

Search for Another Location

Airport or City:

Trip Planner

Search our weather history database for the weather conditions in past years. The results will help you decide how hot, cold, wet, or windy it might be!

Date:

Astronomy

Sep. 25, 2013 Rise Set
Actual Time 6:49 AM PDT 6:50 PM PDT
Civil Twilight 6:23 AM PDT 7:16 PM PDT
Nautical Twilight 5:53 AM PDT 7:45 PM PDT
Astronomical Twilight 5:23 AM PDT 8:16 PM PDT
Moon 11:09 PM PDT (9/25) 12:49 PM PDT (9/25)
Length of Visible Light 12h 52m
Length of Day
12h 01m
Waning Gibbous, 63% of the Moon is Illuminated
Sep 25
Waning Gibbous
Sep 26
Last Quarter
Oct 4
New
Oct 11
First Quarter
Oct 18
Full

Hourly Weather History & Observations

Time (PDT) Temp. Dew Point Humidity Pressure Visibility Wind Dir Wind Speed Gust Speed Precip Events Conditions
12:53 AM 64.9 °F 46.0 °F 50% 29.85 in 10.0 mi NNW 18.4 mph 25.3 mph N/A   Clear
1:53 AM 63.0 °F 46.0 °F 54% 29.85 in 10.0 mi NNW 15.0 mph - N/A   Clear
2:53 AM 61.0 °F 45.0 °F 56% 29.86 in 10.0 mi NNW 16.1 mph 23.0 mph N/A   Clear
3:53 AM 60.1 °F 44.1 °F 55% 29.86 in 10.0 mi NW 15.0 mph 20.7 mph N/A   Clear
4:53 AM 57.9 °F 44.1 °F 60% 29.87 in 10.0 mi NW 11.5 mph - N/A   Clear
5:53 AM 57.0 °F 44.1 °F 62% 29.88 in 10.0 mi WNW 9.2 mph - N/A   Clear
6:53 AM 55.0 °F 44.1 °F 67% 29.90 in 10.0 mi NNW 5.8 mph - N/A   Clear
7:53 AM 57.0 °F 46.0 °F 67% 29.92 in 10.0 mi NNE 3.5 mph - N/A   Clear
8:53 AM 62.1 °F 46.0 °F 56% 29.92 in 10.0 mi NNW 10.4 mph - N/A   Clear
9:53 AM 64.9 °F 45.0 °F 48% 29.93 in 10.0 mi NNW 13.8 mph 20.7 mph N/A   Clear
10:53 AM 66.9 °F 45.0 °F 45% 29.91 in 10.0 mi NNW 13.8 mph 20.7 mph N/A   Clear
11:53 AM 70.0 °F 44.1 °F 39% 29.89 in 10.0 mi NW 13.8 mph 18.4 mph N/A   Clear
12:53 PM 71.1 °F 44.1 °F 38% 29.87 in 10.0 mi NW 8.1 mph 17.3 mph N/A   Clear
1:53 PM 72.0 °F 45.0 °F 38% 29.84 in 9.0 mi NW 12.7 mph 19.6 mph N/A   Clear
2:53 PM 75.0 °F 42.1 °F 31% 29.82 in 8.0 mi North 10.4 mph 19.6 mph N/A   Clear
3:53 PM 73.9 °F 39.9 °F 29% 29.80 in 10.0 mi NW 10.4 mph - N/A   Clear
4:53 PM 75.0 °F 37.9 °F 26% 29.78 in 10.0 mi NNW 11.5 mph 19.6 mph N/A   Clear
5:53 PM 73.0 °F 36.0 °F 26% 29.76 in 10.0 mi North 8.1 mph 18.4 mph N/A   Clear
6:53 PM 70.0 °F 36.0 °F 29% 29.75 in 10.0 mi NNW 9.2 mph - N/A   Clear
7:53 PM 66.9 °F 39.0 °F 36% 29.76 in 10.0 mi NNW 11.5 mph - N/A   Clear
8:53 PM 64.9 °F 39.0 °F 39% 29.76 in 10.0 mi NW 12.7 mph - N/A   Clear
9:53 PM 63.0 °F 39.9 °F 43% 29.77 in 10.0 mi NNW 11.5 mph - N/A   Clear
10:53 PM 61.0 °F 41.0 °F 48% 29.78 in 10.0 mi NW 12.7 mph - N/A   Clear
11:53 PM 59.0 °F 41.0 °F 51% 29.78 in 10.0 mi NW 10.4 mph - N/A   Clear